Preview of NWS' New Version of Forecast
This preview is not operational and should not be used for support decisions.

Regional Weather Roundup (RWR)

Issued by Gray - Portland, ME (GYX)

                            
000
ASUS41 KGYX 201210
RWRGYX
WEATHER ROUNDUP FOR MAINE AND NEW HAMPSHIRE
NATIONAL WEATHER SERVICE GRAY ME
700 AM EST SUN JAN 20 2019

MEZ002-005-006-010-012-015-018-020-021-024-026-027-029-201300-
MAINE
  
CITY           SKY/WX    TMP DP  RH WIND       PRES   REMARKS
PORTLAND       LGT SNOW   8   4  83 NE20G29   29.81F VSB 3/4 WCI -11  
6HR MIN TEMP:   8; 6HR MAX TEMP:  13; 6HR PCP:  0.35;                

SANFORD        LGT SNOW   8   5  87 N18G25    29.77F FOG     WCI -11  
BAR HARBOR     HVY SNOW  12   9  87 NE12      29.95F VSB 1/4 WCI  -2  
WISCASSET      SNOW       7   4  87 VRB7G18   29.88F VSB 1/2          
6HR MIN TEMP:   7; 6HR MAX TEMP:  10; 6HR PCP:  0.36;                

ROCKLAND       LGT SNOW  15  12  88 NE21G29   29.87F VSB 3/4 WCI  -2  
FRYEBURG       LGT SNOW   8   4  83 N9G21     29.86F VSB 3/4          
6HR MIN TEMP:   6; 6HR MAX TEMP:  10; 6HR PCP:  0.40;                

LEWISTONAUBURN LGT SNOW   3   0  85 N21G26    29.85F FOG     WCI -18  
AUGUSTA        SNOW       0  -4  83 N20G29    29.92F VSB 1/2 WCI -22  
6HR MIN TEMP:   0; 6HR MAX TEMP:   6; 6HR PCP:  0.05;                

WATERVILLE     SNOW       0  -4  83 MISG      29.90F VSB 1/2          
BANGOR         HVY SNOW   1  -3  83 N14       30.01F VSB 1/4 WCI -17  
6HR MIN TEMP:   1; 6HR MAX TEMP:   4; 6HR PCP: TRACE;                

GREENVILLE       N/A     -1  -8  72 NE8       29.89F                  
6HR MIN TEMP:  -3; 6HR MAX TEMP:   0; 6HR PCP:  0.32;                

MILLINOCKET    SNOW      -3  -8  79 NE8       30.12F VSB 1/2          
6HR MIN TEMP:  -4; 6HR MAX TEMP:  -3; 6HR PCP: TRACE;                

HOULTON        LGT SNOW  -3  -7  82 N9        30.15F VSB 3/4          
6HR MIN TEMP:  -6; 6HR MAX TEMP:  -3; 6HR PCP: TRACE;                

PRESQUE ISLE   LGT SNOW  -7 -13  75 N8        30.22S                  
6HR MIN TEMP:  -9; 6HR MAX TEMP:  -7; 6HR PCP: TRACE;                

FRENCHVILLE    LGT SNOW  -9 -17  68 N5        30.17F VSB 1            
6HR MIN TEMP: -12; 6HR MAX TEMP:  -9; 6HR PCP:  0.03;                

CARIBOU        LGT SNOW  -8 -14  74 N8        30.20F                  
6HR MIN TEMP:  -9; 6HR MAX TEMP:  -8; 6HR PCP:  0.08;                

$$

NHZ002-005-008-009-011-012-014-201300-
NEW HAMPSHIRE
  
CITY           SKY/WX    TMP DP  RH WIND       PRES   REMARKS
PORTSMOUTH     LGT SNOW  12   8  83 N12       29.74F VSB 5/8 WCI  -2  
ROCHESTER      LGT SNOW  11   7  84 N13G20    29.75F FOG     WCI  -4  
6HR MIN TEMP:  10; 6HR MAX TEMP:  14; 6HR PCP:  0.15;                

NASHUA         LGT SNOW  14  12  92 NW9G16    29.73F VSB 1            
MANCHESTER     LGTSLEET  14  10  84 N12       29.73F VSB 1   WCI   0  
6HR MIN TEMP:  14; 6HR MAX TEMP:  17; 6HR PCP:  0.13;                

CONCORD        MIX PCPN  12   7  80 NE13      29.74F WCI  -3          
6HR MIN TEMP:  12; 6HR MAX TEMP:  15; 6HR PCP:  0.36;                

LACONIA        LGT SNOW  10   5  80 NE18G25   29.74F WCI  -8          
PLYMOUTH       LGT SNOW  16  14  90 SE6       29.73F                  
BERLIN         HVY SNOW   6   2  83 N7        29.81F VSB 1/4          
6HR MIN TEMP:   6; 6HR MAX TEMP:  11; 6HR PCP:  0.46;                

WHITEFIELD     SNOW      13   9  84 SE7       29.69F VSB 1/2          
6HR MIN TEMP:  11; 6HR MAX TEMP:  14; 6HR PCP:  0.19;                

JAFFREY        LGT SNOW  13  11  92 VRB3      29.64F VSB 1            
6HR MIN TEMP:  13; 6HR MAX TEMP:  18; 6HR PCP:  0.47;                

KEENE          LGT SNOW  16  11  80 N15       29.67F WCI   1          
LEBANON        LGT SNOW  16  11  80 CALM      29.71F VSB 3/4          
6HR MIN TEMP:  16; 6HR MAX TEMP:  17; 6HR PCP:  0.17;                

MT WASHINGTON  NOT AVBL                                               
$$

VTZ005-007-008-201300-
VERMONT
  
CITY           SKY/WX    TMP DP  RH WIND       PRES   REMARKS
ST JOHNSBURY     N/A     12  10  92 MISG      29.72F                  
MONTPELIER     LGT SNOW   8   6  92 CALM      29.73F VSB 3/4          
BURLINGTON     LGT SNOW  -3  -8  79 N6        29.76F VSB 3/4          
$$

MAZ007-012-024-CTZ003-RIZ002-NYZ038-NYZ072-201300-
SOUTHERN NEW ENGLAND AND NY
  
CITY           SKY/WX    TMP DP  RH WIND       PRES   REMARKS
BOSTON         RAIN      37  34  89 NE17      29.64F FOG              
WORCESTER      MIX PCPN  16  13  88 NE16G24   29.58F FOG     WCI   1  
NANTUCKET      LGT RAIN  49  49 100 S21       29.56F FOG              
PROVIDENCE     HVY RAIN  34  33  96 N9        29.59F FOG              
HARTFORD       SLEET     23  21  92 N14       29.57F FOG     WCI  11  
ALBANY         LGTSLEET  14   8  77 NE6       29.53F FOG              
NEW YORK CITY  LGT RAIN  36  34  92 E15       29.43F                  
$$

ANZ081-ANZ082-ANZ150-NHZ014-MEZ023>029-201300-
COASTAL MARINE OBSERVATIONS
  
STATION/POSITION TIME  TEMP    WIND        PRES    WAVE
                       AIR SEA DIR/SP/G            HT/PER
                 (UTC) (F)     (DEG/KT/KT) (MB)    (FT/S)
MOUNT DESERT ROC 1200   30      70/ 38/ 42 1010.3F
MATINICUS ROCK   1200   31      90/ 44/ 49 1007.7F
ISLE OF SHOALS   1200   33      40/ 32/ 39 1004.4F
JEFFREYS LEDGE   1138      43                N/A    13/ 8
CASHES LEDGE BUO 1150   34 40              1005.5F  11/ 7
$$

.............KEY..............
   WCI - WIND CHILL
   TC  - TEMPERATURE IN CELSIUS
   VSB - VISIBILITY IN MILES
   HX  - HEAT INDEX
   FAIR- INDICATES FEW OR NO CLOUDS BELOW 12,000 FT, WITH NO 
         SIGNIFICANT WEATHER AND/OR OBSTRUCTIONS TO VISIBILITY.